Location: 3 Angels Observatory
(30.5437°N, 88.5068°W)
Time: 04:45:38
(UTC-05:00)

Oscar 19 - Visible Passes

Search period start: 26 April 2015 00:00
Search period end: 06 May 2015 00:00
Orbit: 775 x 790 km, 98.5° (Epoch: 25 April)

Date Brightness Start Highest point End Pass type
(mag) Time Alt. Az. Time Alt. Az. Time Alt. Az.
26 Apr 12.9 03:09:48 10° N 03:11:11 17° NNW 03:11:11 17° NNW visible
27 Apr 12.9 02:37:39 10° N 02:39:12 20° N 02:39:12 20° N visible
28 Apr 13.2 02:06:02 10° NNE 02:07:12 17° NNE 02:07:12 17° NNE visible
28 Apr 13.0 03:47:26 10° NW 03:47:46 11° NW 03:47:46 11° NW visible
29 Apr 13.6 01:35:03 10° NE 01:35:12 11° NE 01:35:12 11° NE visible
29 Apr 12.8 03:14:11 10° NNW 03:15:47 18° NNW 03:15:47 18° NNW visible
30 Apr 12.7 02:41:57 10° N 02:43:47 22° N 02:43:47 22° N visible
01 May 13.0 02:10:16 10° NNE 02:11:47 20° NNE 02:11:47 20° NNE visible
01 May 13.0 03:52:09 10° NW 03:52:21 10° NW 03:52:21 10° NW visible
02 May 13.4 01:39:10 10° NE 01:39:47 13° NE 01:39:47 13° NE visible
02 May 12.7 03:18:34 10° NNW 03:20:21 18° NNW 03:20:21 18° NNW visible
03 May 12.5 02:46:15 10° N 02:48:21 24° N 02:48:21 24° N visible
04 May 12.8 02:14:29 10° NNE 02:16:20 22° NNE 02:16:20 22° NNE visible
05 May 13.2 01:43:18 10° NE 01:44:20 15° NE 01:44:20 15° NE visible
05 May 12.6 03:22:59 10° NNW 03:24:54 18° NW 03:24:54 18° NW visible
